QPF
0.01 0.01 0.02 0.02 0.02 0.02 0.02 0.01 0.02 0.00 0.00 0.00 0.00 0.00 0.00 0.00 0.00 0.00 0.00 0.00 0.00 0.00 0.00 0.00 0.00 0.00 0.00 0.00 0.00 0.00 0.00 0.00 0.00 0.00 0.00 0.00 0.00 0.00
0.01 0.01 0.01 0.02 0.01 0.01 0.01 0.02 0.02 0.02 0.01 0.00 0.00 0.00 0.00 0.00 0.00 0.00 0.00 0.00 0.00 0.00 0.00 0.00 0.00 0.00 0.01 0.00 0.00 0.00 0.00 0.00 0.00 0.00 0.00 0.00 0.00 0.00
0.01 0.01 0.01 0.01 0.00 0.00 0.00 0.01 0.01 0.02 0.01 0.00 0.00 0.00 0.00 0.00 0.00 0.01 0.00 0.00 0.00 0.00 0.00 0.00 0.00 0.00 0.00 0.00 0.00 0.00 0.00 0.00 0.00 0.00 0.00 0.00 0.00 0.00
0.00 0.00 0.00 0.01 0.01 0.01 0.01 0.00 0.00 0.00 0.00 0.00 0.00 0.00 0.00 0.00 0.01 0.02 0.02 0.01 0.00 0.00 0.00 0.00 0.00 0.00 0.00 0.00 0.00 0.00 0.00 0.00 0.00 0.00 0.00 0.00 0.00 0.00
0.01 0.01 0.01 0.01 0.01 0.01 0.01 0.00 0.00 0.00 0.00 0.00 0.00 0.00 0.00 0.00 0.00 0.01 0.01 0.01 0.00 0.00 0.00 0.00 0.00 0.00 0.00 0.00 0.00 0.00 0.00 0.00 0.00 0.00 0.00 0.00 0.00 0.00
0.00 0.00 0.01 0.01 0.01 0.01 0.01 0.01 0.00 0.00 0.00 0.00 0.00 0.00 0.00 0.00 0.00 0.00 0.00 0.00 0.00 0.00 0.00 0.00 0.00 0.00 0.00 0.00 0.00 0.00 0.00 0.00 0.00 0.00 0.00 0.00 0.00 0.00
0.00 0.00 0.00 0.00 0.00 0.00 0.01 0.01 0.01 0.00 0.00 0.00 0.00 0.00 0.00 0.00 0.00 0.00 0.00 0.00 0.00 0.00 0.00 0.00 0.00 0.00 0.00 0.00 0.00 0.00 0.00 0.00 0.00 0.00 0.00 0.00 0.00 0.00
0.00 0.00 0.00 0.00 0.00 0.00 0.00 0.00 0.00 0.00 0.00 0.00 0.00 0.00 0.00 0.00 0.00 0.00 0.00 0.00 0.00 0.00 0.00 0.00 0.00 0.00 0.00 0.00 0.00 0.00 0.00 0.00 0.00 0.00 0.00 0.00 0.00 0.00
0.00 0.00 0.00 0.00 0.00 0.00 0.00 0.00 0.00 0.00 0.00 0.00 0.00 0.00 0.00 0.00 0.00 0.00 0.00 0.00 0.00 0.00 0.00 0.00 0.00 0.00 0.00 0.00 0.00 0.00 0.00 0.00 0.00 0.00 0.00 0.00 0.00 0.00
0.00 0.00 0.00 0.00 0.00 0.00 0.00 0.00 0.00 0.00 0.00 0.00 0.00 0.00 0.00 0.00 0.00 0.00 0.00 0.00 0.00 0.00 0.00 0.00 0.00 0.00 0.00 0.00 0.00 0.00 0.00 0.00 0.00 0.00 0.00 0.00 0.00 0.00
0.00 0.00 0.00 0.00 0.00 0.00 0.00 0.00 0.00 0.00 0.00 0.00 0.00 0.00 0.00 0.00 0.00 0.00 0.00 0.00 0.00 0.00 0.00 0.00 0.00 0.00 0.00 0.00 0.00 0.00 0.00 0.00 0.00 0.00 0.00 0.00 0.00 0.00
0.00 0.00 0.00 0.00 0.00 0.00 0.00 0.00 0.00 0.00 0.00 0.00 0.00 0.00 0.00 0.00 0.00 0.00 0.00 0.00 0.00 0.00 0.00 0.00 0.00 0.00 0.00 0.00 0.00 0.00 0.00 0.00 0.00 0.00 0.00 0.00 0.00 0.00
0.00 0.00 0.00 0.00 0.00 0.00 0.00 0.00 0.00 0.00 0.00 0.00 0.00 0.00 0.00 0.00 0.00 0.00 0.00 0.00 0.00 0.00 0.00 0.00 0.00 0.00 0.00 0.00 0.00 0.00 0.00 0.00 0.00 0.00 0.00 0.00 0.00 0.00
0.00 0.00 0.00 0.00 0.00 0.00 0.00 0.00 0.00 0.00 0.00 0.00 0.00 0.00 0.00 0.00 0.00 0.00 0.00 0.00 0.00 0.00 0.00 0.00 0.00 0.00 0.00 0.00 0.00 0.00 0.00 0.00 0.00 0.00 0.00 0.00 0.00 0.00
0.00 0.00 0.00 0.00 0.00 0.00 0.00 0.00 0.00 0.00 0.00 0.00 0.00 0.00 0.00 0.00 0.00 0.00 0.00 0.00 0.00 0.00 0.00 0.00 0.00 0.00 0.00 0.00 0.00 0.00 0.00 0.00 0.00 0.00 0.00 0.00 0.00 0.00
0.00 0.00 0.00 0.00 0.00 0.00 0.00 0.00 0.00 0.00 0.00 0.00 0.00 0.00 0.00 0.00 0.00 0.00 0.00 0.00 0.00 0.00 0.00 0.00 0.00 0.00 0.00 0.00 0.00 0.00 0.00 0.00 0.00 0.00 0.00 0.00 0.00 0.00
0.00 0.00 0.00 0.00 0.00 0.00 0.00 0.00 0.00 0.00 0.00 0.00 0.00 0.00 0.00 0.00 0.00 0.00 0.00 0.00 0.00 0.00 0.00 0.00 0.00 0.00 0.00 0.00 0.00 0.00 0.00 0.00 0.00 0.00 0.00 0.00 0.00 0.00
0.00 0.00 0.00 0.00 0.00 0.00 0.00 0.00 0.00 0.00 0.00 0.00 0.00 0.00 0.00 0.00 0.00 0.00 0.00 0.00 0.00 0.00 0.00 0.00 0.00 0.00 0.00 0.00 0.00 0.00 0.00 0.00 0.00 0.00 0.00 0.00 0.00 0.00
0.00 0.00 0.00 0.00 0.00 0.00 0.00 0.00 0.00 0.00 0.00 0.00 0.00 0.00 0.00 0.00 0.00 0.00 0.00 0.00 0.00 0.00 0.00 0.00 0.00 0.00 0.00 0.00 0.00 0.00 0.00 0.00 0.00 0.00 0.00 0.00 0.00 0.00
0.00 0.00 0.00 0.00 0.00 0.00 0.00 0.00 0.00 0.00 0.00 0.00 0.00 0.00 0.00 0.00 0.00 0.00 0.00 0.00 0.00 0.00 0.00 0.00 0.00 0.00 0.00 0.00 0.00 0.00 0.00 0.00 0.00 0.00 0.00 0.00 0.00 0.00
0.00 0.00 0.00 0.00 0.00 0.00 0.00 0.00 0.00 0.00 0.00 0.00 0.00 0.00 0.00 0.00 0.00 0.00 0.00 0.00 0.00 0.00 0.00 0.00 0.00 0.00 0.00 0.00 0.00 0.00 0.00 0.00 0.00 0.00 0.00 0.00 0.00 0.00
0.00 0.00 0.00 0.00 0.00 0.00 0.00 0.00 0.00 0.00 0.00 0.00 0.00 0.00 0.00 0.00 0.00 0.00 0.00 0.00 0.00 0.00 0.00 0.00 0.00 0.00 0.00 0.00 0.00 0.00 0.00 0.00 0.00 0.00 0.00 0.00 0.00 0.00
0.00 0.00 0.00 0.00 0.00 0.00 0.00 0.00 0.00 0.00 0.00 0.00 0.00 0.00 0.00 0.00 0.00 0.00 0.00 0.00 0.00 0.00 0.00 0.00 0.00 0.00 0.00 0.00 0.00 0.00 0.00 0.00 0.00 0.00 0.00 0.00 0.00 0.00
MSLP
1012.43 1012.96 1013.29 1013.45 1013.81 1014.22 1014.52 1014.99 1015.50 1016.35 1016.58 1017.04 1017.27 1017.49 1017.96 1018.51 1018.93 1019.20 1019.64 1019.99 1020.41 1020.85 1021.40 1021.85 1022.27 1022.61 1022.92 1023.36 1023.78 1024.40 1024.89 1025.71 1026.18 1026.66 1027.14 1027.62 1027.87 1028.07
1011.87 1012.34 1012.73 1012.93 1013.25 1013.61 1014.03 1014.33 1014.61 1015.10 1015.55 1016.27 1016.83 1017.24 1017.77 1018.14 1018.58 1018.94 1019.13 1019.48 1019.83 1020.33 1020.84 1021.34 1021.82 1022.49 1022.97 1023.40 1023.87 1024.47 1025.27 1026.23 1026.39 1027.17 1027.57 1027.86 1028.16 1028.52
1011.25 1011.58 1011.93 1012.32 1012.66 1013.03 1013.36 1013.62 1013.97 1014.52 1015.09 1016.14 1016.59 1017.37 1017.73 1018.17 1018.73 1019.21 1019.37 1019.34 1019.63 1020.03 1020.51 1021.00 1021.65 1022.22 1023.00 1023.63 1024.07 1024.80 1025.53 1026.47 1026.89 1027.09 1028.16 1028.30 1028.48 1028.76
1010.64 1011.03 1011.34 1011.76 1012.03 1012.25 1012.38 1012.58 1013.01 1013.37 1013.85 1015.17 1015.96 1017.14 1017.40 1017.94 1018.67 1019.39 1019.88 1019.87 1019.86 1020.29 1020.46 1021.12 1021.78 1022.36 1023.20 1023.81 1024.45 1025.25 1025.97 1027.07 1027.43 1027.43 1028.13 1028.53 1028.79 1028.88
1010.07 1010.41 1010.75 1011.03 1011.34 1011.51 1011.58 1011.68 1012.02 1012.41 1012.88 1013.74 1014.93 1016.05 1017.19 1017.88 1018.65 1019.79 1020.16 1020.48 1020.60 1020.97 1021.29 1021.87 1022.36 1022.96 1023.55 1024.12 1025.06 1025.48 1026.28 1027.43 1027.93 1028.10 1028.48 1028.79 1029.12 1029.30
1009.65 1009.89 1010.14 1010.35 1010.66 1010.77 1010.81 1010.78 1011.19 1011.38 1011.99 1012.67 1013.95 1015.04 1015.99 1017.41 1017.98 1019.31 1020.41 1020.84 1021.39 1021.70 1022.18 1022.68 1023.37 1023.89 1024.45 1024.99 1025.41 1026.28 1026.96 1027.29 1027.84 1028.53 1028.48 1028.97 1029.33 1029.50
1009.41 1009.60 1009.81 1010.01 1010.22 1010.37 1010.54 1010.43 1010.31 1010.28 1010.64 1011.62 1012.67 1014.08 1015.28 1016.60 1016.89 1018.48 1019.71 1020.82 1021.88 1022.21 1022.62 1023.46 1023.94 1024.46 1025.14 1025.56 1025.92 1026.35 1027.44 1027.55 1027.73 1028.53 1028.57 1028.89 1029.27 1029.51
1009.17 1009.38 1009.43 1009.61 1009.75 1009.73 1009.80 1009.84 1009.86 1009.51 1009.36 1009.77 1011.02 1012.21 1013.22 1014.48 1015.90 1017.16 1018.85 1020.56 1021.77 1022.42 1022.78 1024.05 1024.23 1024.89 1025.39 1025.68 1026.20 1026.47 1027.32 1027.40 1027.83 1028.44 1028.55 1028.82 1029.07 1029.34
1008.80 1009.14 1009.30 1009.43 1009.54 1009.48 1009.31 1009.19 1009.15 1008.99 1008.65 1008.36 1009.34 1010.46 1011.83 1012.27 1013.94 1016.19 1017.27 1018.21 1019.42 1020.76 1021.93 1023.97 1024.36 1025.00 1025.51 1025.82 1026.15 1026.53 1026.89 1027.35 1027.93 1028.37 1028.54 1028.76 1028.90 1029.15
1008.64 1008.93 1009.19 1009.38 1009.37 1009.39 1009.50 1009.58 1009.61 1009.09 1008.13 1007.83 1007.85 1008.65 1009.68 1011.17 1012.10 1013.28 1015.50 1017.96 1019.39 1020.71 1021.59 1023.22 1024.23 1024.95 1025.49 1025.82 1026.21 1026.55 1026.99 1027.62 1027.96 1028.32 1028.54 1028.79 1029.01 1029.11
1009.00 1009.20 1009.22 1009.42 1009.34 1009.43 1009.60 1009.93 1010.09 1009.86 1009.01 1007.68 1008.12 1008.91 1009.60 1010.58 1011.85 1013.79 1015.99 1017.38 1019.59 1020.92 1021.65 1022.14 1023.52 1024.63 1025.52 1026.03 1026.33 1026.71 1027.27 1027.63 1028.10 1028.29 1028.38 1028.59 1028.72 1028.90
1009.54 1009.48 1009.62 1009.62 1009.50 1009.52 1009.81 1010.44 1010.32 1010.34 1009.91 1009.35 1010.07 1010.43 1011.17 1012.32 1013.05 1012.96 1013.75 1015.63 1017.83 1020.35 1020.90 1021.63 1023.10 1023.88 1025.37 1026.09 1026.38 1026.63 1027.22 1027.63 1027.91 1027.92 1027.99 1028.13 1028.31 1028.73
1009.49 1009.92 1010.18 1010.04 1009.98 1009.86 1010.02 1010.51 1010.64 1010.96 1011.14 1010.75 1011.39 1012.43 1012.62 1013.41 1014.13 1014.56 1014.71 1015.27 1016.58 1018.47 1019.44 1020.40 1022.10 1023.38 1024.21 1025.34 1026.14 1026.60 1027.09 1027.62 1027.77 1027.71 1027.72 1028.00 1028.35 1028.56
1009.88 1010.37 1010.63 1010.83 1010.58 1010.26 1010.82 1011.30 1011.42 1011.43 1011.79 1012.20 1012.70 1013.54 1014.37 1014.72 1015.44 1015.75 1016.03 1016.47 1017.15 1017.65 1019.17 1020.01 1021.46 1022.40 1023.55 1024.90 1025.79 1026.53 1027.18 1027.59 1027.56 1027.70 1027.99 1028.22 1028.43 1028.55
1010.60 1010.96 1011.32 1011.69 1011.47 1011.33 1011.90 1012.02 1012.15 1012.44 1012.88 1013.52 1014.44 1015.28 1015.91 1016.30 1016.58 1017.00 1017.53 1017.70 1018.48 1019.38 1020.08 1020.57 1021.06 1022.25 1023.09 1023.99 1024.89 1026.14 1027.20 1027.60 1027.77 1027.92 1028.04 1028.20 1028.48 1028.59
1011.86 1012.26 1012.68 1012.60 1012.40 1012.63 1012.88 1013.24 1013.42 1013.54 1013.73 1014.60 1015.55 1016.24 1016.78 1017.17 1017.79 1018.16 1018.19 1018.74 1019.40 1020.82 1021.33 1021.62 1022.15 1022.75 1023.74 1024.58 1024.92 1026.12 1026.94 1027.40 1027.96 1028.15 1028.08 1028.20 1028.30 1028.36
1013.03 1012.67 1013.65 1013.68 1013.61 1013.77 1014.25 1014.57 1014.72 1014.88 1015.01 1015.62 1016.13 1016.83 1017.46 1018.01 1018.66 1019.24 1019.49 1019.88 1020.49 1021.41 1022.16 1022.71 1023.09 1023.53 1024.20 1024.65 1025.54 1026.40 1027.18 1027.71 1028.04 1028.14 1028.15 1028.14 1028.00 1027.95
1013.89 1013.91 1014.67 1015.19 1014.81 1015.05 1015.35 1015.53 1015.86 1015.87 1016.45 1016.75 1017.42 1017.75 1018.22 1018.96 1019.33 1019.99 1020.70 1021.10 1021.55 1022.35 1022.92 1023.62 1023.74 1023.95 1024.97 1026.03 1026.31 1026.98 1027.51 1027.81 1028.08 1028.23 1028.35 1028.30 1027.99 1027.71
1014.72 1015.45 1015.75 1015.93 1016.23 1016.51 1016.41 1016.90 1016.90 1017.19 1017.20 1017.94 1018.45 1019.02 1019.55 1020.13 1020.70 1021.50 1021.69 1021.96 1022.87 1023.44 1024.02 1024.41 1024.61 1024.82 1025.49 1026.63 1027.50 1027.39 1027.72 1028.05 1028.42 1028.46 1028.39 1028.39 1028.11 1027.40
1016.73 1016.95 1016.93 1017.08 1017.32 1017.69 1017.80 1017.79 1018.29 1018.40 1018.40 1019.37 1019.89 1020.33 1020.71 1021.10 1021.74 1022.42 1022.96 1023.29 1023.79 1024.46 1025.06 1025.58 1025.71 1025.95 1026.37 1027.11 1027.72 1028.39 1028.09 1028.54 1028.72 1028.66 1028.39 1028.46 1027.99 1027.45
1018.24 1018.48 1018.40 1018.52 1018.56 1018.73 1018.89 1019.00 1019.21 1019.36 1020.09 1020.65 1021.09 1021.50 1021.88 1022.11 1022.81 1023.45 1024.06 1024.39 1024.65 1025.21 1025.84 1026.49 1026.88 1026.93 1027.20 1027.56 1028.16 1028.82 1028.91 1028.82 1028.76 1028.68 1028.72 1028.51 1028.09 1027.39
1019.50 1019.69 1019.82 1019.83 1019.88 1019.85 1020.05 1020.26 1020.56 1020.91 1021.37 1021.79 1022.17 1022.53 1022.88 1023.38 1024.03 1024.51 1024.85 1025.30 1025.93 1026.37 1026.85 1027.23 1027.32 1027.25 1027.60 1028.16 1028.99 1029.31 1029.34 1029.15 1028.75 1028.61 1028.54 1028.52 1028.48 1027.81
1021.10 1021.23 1021.23 1021.23 1021.33 1021.35 1021.24 1021.45 1021.92 1022.29 1022.71 1022.95 1023.37 1023.63 1024.02 1024.58 1025.10 1025.64 1026.02 1026.42 1026.81 1027.20 1027.55 1028.03 1028.35 1028.42 1028.60 1028.99 1029.26 1029.73 1029.97 1029.83 1029.53 1029.01 1028.81 1028.62 1028.15 1027.38
Thickness
5625 5622 5619 5618 5614 5611 5607 5604 5599 5590 5592 5588 5586 5587 5584 5581 5580 5578 5575 5572 5568 5565 5563 5560 5556 5553 5550 5546 5545 5540 5535 5527 5522 5517 5512 5507 5504 5500
5622 5619 5616 5614 5611 5608 5603 5601 5599 5596 5591 5589 5586 5579 5577 5577 5575 5572 5571 5568 5564 5561 5558 5555 5551 5546 5542 5540 5538 5533 5525 5517 5514 5507 5502 5498 5494 5490
5619 5617 5615 5611 5608 5605 5602 5599 5597 5592 5588 5578 5578 5570 5569 5569 5565 5562 5562 5561 5558 5557 5554 5551 5545 5540 5535 5530 5529 5523 5516 5508 5504 5501 5490 5488 5484 5479
5616 5613 5611 5607 5605 5603 5601 5599 5596 5593 5591 5579 5572 5565 5563 5560 5557 5553 5550 5549 5549 5547 5547 5542 5537 5531 5525 5522 5518 5512 5505 5496 5492 5491 5483 5478 5472 5470
5613 5610 5608 5605 5603 5600 5599 5598 5595 5591 5589 5580 5570 5563 5555 5551 5547 5540 5539 5538 5537 5535 5533 5529 5524 5519 5515 5511 5505 5502 5496 5487 5481 5479 5473 5468 5463 5458
5607 5605 5603 5602 5600 5597 5596 5595 5591 5590 5586 5580 5571 5562 5556 5546 5544 5535 5529 5526 5524 5521 5518 5514 5509 5505 5501 5498 5495 5488 5482 5479 5474 5467 5465 5457 5451 5446
5599 5598 5597 5596 5593 5591 5589 5589 5589 5588 5585 5575 5569 5557 5550 5542 5545 5533 5524 5517 5511 5509 5506 5500 5497 5493 5489 5486 5483 5479 5470 5468 5466 5457 5453 5447 5441 5435
5592 5590 5590 5588 5586 5583 5581 5580 5580 5584 5584 5577 5568 5563 5558 5550 5540 5532 5520 5511 5507 5500 5498 5489 5487 5483 5480 5478 5472 5469 5461 5459 5454 5446 5441 5436 5430 5424
5586 5583 5582 5580 5578 5578 5577 5575 5573 5569 5569 5576 5570 5566 5557 5558 5546 5528 5523 5522 5514 5504 5496 5481 5479 5475 5470 5467 5464 5459 5454 5448 5441 5434 5429 5424 5419 5412
5576 5574 5573 5572 5570 5568 5566 5563 5560 5557 5562 5570 5573 5570 5565 5555 5550 5542 5528 5511 5502 5495 5490 5479 5471 5466 5461 5457 5453 5448 5442 5434 5428 5422 5416 5410 5404 5397
5561 5560 5563 5562 5562 5559 5556 5551 5547 5544 5549 5561 5560 5557 5551 5547 5540 5527 5513 5508 5490 5483 5479 5477 5467 5457 5449 5445 5441 5436 5429 5422 5416 5409 5404 5398 5391 5385
5547 5549 5549 5550 5552 5550 5547 5541 5541 5537 5538 5542 5537 5536 5532 5526 5523 5527 5523 5513 5494 5478 5476 5470 5459 5452 5439 5433 5429 5424 5417 5411 5404 5398 5393 5386 5379 5369
5537 5536 5535 5537 5538 5537 5536 5532 5531 5528 5526 5527 5521 5514 5515 5511 5508 5506 5508 5507 5499 5484 5476 5469 5455 5444 5437 5427 5417 5411 5404 5397 5391 5385 5380 5372 5362 5354
5525 5523 5522 5521 5524 5525 5521 5517 5516 5517 5514 5510 5507 5500 5495 5494 5491 5491 5490 5488 5484 5480 5468 5461 5449 5440 5429 5416 5408 5399 5390 5383 5377 5371 5363 5356 5348 5342
5510 5508 5507 5505 5506 5507 5502 5501 5501 5501 5500 5494 5486 5481 5478 5476 5476 5474 5470 5469 5463 5456 5449 5444 5440 5429 5420 5411 5401 5387 5375 5367 5360 5353 5348 5343 5334 5327
5488 5486 5485 5486 5487 5486 5484 5482 5481 5482 5482 5476 5469 5466 5463 5460 5457 5455 5455 5451 5445 5432 5427 5423 5417 5410 5400 5392 5387 5373 5362 5353 5343 5338 5335 5329 5321 5314
5467 5471 5466 5467 5467 5465 5462 5460 5459 5461 5462 5458 5456 5451 5447 5444 5439 5434 5432 5429 5424 5414 5407 5401 5395 5389 5381 5375 5365 5355 5344 5336 5330 5326 5321 5316 5310 5303
5448 5449 5446 5443 5447 5444 5443 5441 5439 5441 5438 5438 5434 5433 5430 5424 5422 5417 5411 5406 5402 5395 5388 5380 5376 5371 5360 5348 5342 5335 5327 5322 5317 5311 5305 5299 5295 5289
5429 5425 5425 5425 5424 5422 5423 5420 5421 5419 5421 5417 5414 5409 5406 5402 5398 5392 5389 5385 5376 5370 5363 5357 5353 5350 5342 5329 5320 5318 5314 5308 5301 5295 5290 5283 5277 5278
5403 5402 5404 5404 5403 5401 5401 5403 5399 5400 5400 5394 5390 5385 5383 5380 5375 5370 5364 5360 5354 5347 5339 5333 5329 5326 5323 5316 5309 5300 5297 5289 5284 5279 5275 5265 5261 5259
5381 5379 5380 5381 5381 5380 5380 5380 5379 5378 5373 5368 5365 5361 5358 5357 5351 5345 5340 5336 5332 5326 5320 5313 5309 5306 5303 5299 5292 5283 5276 5270 5266 5262 5255 5249 5245 5242
5366 5363 5363 5363 5363 5364 5361 5360 5357 5355 5352 5348 5345 5342 5339 5335 5330 5326 5323 5317 5310 5305 5300 5295 5292 5291 5286 5280 5270 5262 5258 5254 5251 5246 5239 5232 5226 5225
5349 5348 5347 5346 5345 5345 5345 5343 5340 5337 5333 5330 5326 5323 5320 5315 5310 5305 5301 5297 5293 5289 5284 5278 5272 5269 5265 5258 5252 5244 5236 5232 5228 5227 5226 5218 5214 5213